Weather History for KDET - December, 2013

Change the Weather History Date:

Thursday, December 26, 2013

  Actual Average Record
Temperature  
Mean Temperature 28 °F -  
Max Temperature 30 °F 28 °F 53 °F (1982)
Min Temperature 25 °F 19 °F -5 °F (1983)
Degree Days  
Heating Degree Days 38    
Moisture  
Dew Point 21 °F    
Average Humidity 77    
Maximum Humidity 86    
Minimum Humidity 56    
Precipitation  
Precipitation 0.00 in - - ()
Sea Level Pressure  
Sea Level Pressure 30.12 in    
Wind  
Wind Speed 10 mph (WSW)    
Max Wind Speed 16 mph    
Max Gust Speed 24 mph    
Visibility 5 miles    
Events Snow    
Averages and records for this station are not official NWS values.
T = Trace of Precipitation, MM = Missing Value Source: NWS Daily Summary

Daily Weather History Graph

Daily Weather History Graph

Search for Another Location

Airport or City:

Trip Planner

Search our weather history database for the weather conditions in past years. The results will help you decide how hot, cold, wet, or windy it might be!

Date:

Astronomy

Dec. 26, 2013 Rise Set
Actual Time 8:00 AM EST 5:05 PM EST
Civil Twilight 7:28 AM EST 5:37 PM EST
Nautical Twilight 6:52 AM EST 6:12 PM EST
Astronomical Twilight 6:18 AM EST 6:47 PM EST
Moon 1:22 AM EST (12/26) 12:45 PM EST (12/26)
Length of Visible Light 10h 09m
Length of Day
9h 05m
Last Quarter, 38% of the Moon is Illuminated
Dec 26
Last Quarter
Jan 1
New
Jan 7
First Quarter
Jan 15
Full
Jan 24
Last Quarter

Hourly Weather History & Observations

Time (EST) Temp. Windchill Dew Point Humidity Pressure Visibility Wind Dir Wind Speed Gust Speed Precip Events Conditions
12:34 AM 26.6 °F 16.2 °F 21.2 °F 80% 30.09 in 5.0 mi SW 11.5 mph - 0.00 in Snow Light Snow
12:53 AM 27.0 °F 18.7 °F 21.0 °F 78% 30.13 in 5.0 mi SSW 8.1 mph - 0.00 in Snow Light Snow
1:26 AM 26.6 °F 18.2 °F 21.2 °F 80% 30.07 in 4.0 mi SSW 8.1 mph - 0.00 in Snow Light Snow
1:41 AM 26.6 °F 17.5 °F 21.2 °F 80% 30.06 in 2.5 mi SSW 9.2 mph - 0.00 in Snow Light Snow
1:53 AM 27.0 °F 18.0 °F 21.9 °F 81% 30.09 in 3.0 mi SSW 9.2 mph - 0.00 in Snow Light Snow
2:29 AM 26.6 °F 16.8 °F 21.2 °F 80% 30.05 in 2.0 mi SSW 10.4 mph - 0.00 in Snow Light Snow
2:37 AM 26.6 °F 17.5 °F 23.0 °F 86% 30.05 in 1.2 mi SSW 9.2 mph - 0.00 in Snow Light Snow
2:47 AM 26.6 °F 17.5 °F 23.0 °F 86% 30.05 in 2.5 mi SSW 9.2 mph - 0.00 in Snow Light Snow
2:53 AM 27.0 °F 17.3 °F 23.0 °F 85% 30.08 in 2.0 mi SSW 10.4 mph - 0.00 in Snow Light Snow
3:01 AM 26.6 °F 18.2 °F 23.0 °F 86% 30.05 in 1.8 mi SSW 8.1 mph - 0.00 in Snow Light Snow
3:29 AM 26.6 °F 17.5 °F 23.0 °F 86% 30.04 in 1.8 mi SSW 9.2 mph - 0.00 in Snow Light Snow
3:33 AM 26.6 °F 16.8 °F 23.0 °F 86% 30.04 in 2.0 mi SSW 10.4 mph - 0.00 in Snow Light Snow
3:53 AM 28.0 °F 18.1 °F 23.0 °F 81% 30.06 in 2.5 mi SSW 11.5 mph - 0.00 in Snow Light Snow
4:06 AM 28.4 °F 18.0 °F 23.0 °F 80% 30.03 in 1.5 mi SW 12.7 mph 18.4 mph 0.00 in Snow Light Snow
4:18 AM 28.4 °F 19.1 °F 23.0 °F 80% 30.03 in 2.0 mi SW 10.4 mph - 0.00 in Snow Light Snow
4:33 AM 28.4 °F 18.0 °F 23.0 °F 80% 30.03 in 4.0 mi SW 12.7 mph - 0.00 in Snow Light Snow
4:46 AM 28.4 °F 18.0 °F 23.0 °F 80% 30.02 in 5.0 mi SW 12.7 mph - 0.00 in Snow Light Snow
4:53 AM 28.0 °F 18.6 °F 23.0 °F 81% 30.05 in 5.0 mi SW 10.4 mph - 0.00 in Snow Light Snow
5:26 AM 28.4 °F 19.1 °F 23.0 °F 80% 30.03 in 3.0 mi SW 10.4 mph - 0.00 in Snow Light Snow
5:34 AM 28.4 °F 19.1 °F 23.0 °F 80% 30.03 in 2.5 mi SW 10.4 mph - 0.00 in Snow Light Snow
5:53 AM 28.0 °F 18.1 °F 23.0 °F 81% 30.06 in 3.0 mi SW 11.5 mph - 0.00 in Snow Light Snow
6:00 AM 28.4 °F 19.1 °F 23.0 °F 80% 30.03 in 2.0 mi WSW 10.4 mph - 0.00 in Snow Light Snow
6:14 AM 28.4 °F 18.5 °F 24.8 °F 86% 30.03 in 3.0 mi WSW 11.5 mph - 0.00 in Snow Light Snow
6:25 AM 28.4 °F 18.0 °F 23.0 °F 80% 30.04 in 3.0 mi WSW 12.7 mph - 0.00 in Snow Light Snow
6:45 AM 28.4 °F 18.0 °F 23.0 °F 80% 30.04 in 7.0 mi WSW 12.7 mph - 0.00 in Snow Light Snow
6:53 AM 28.9 °F 18.6 °F 23.0 °F 78% 30.07 in 9.0 mi West 12.7 mph 21.9 mph 0.00 in   Overcast
7:04 AM 28.4 °F 18.5 °F 23.0 °F 80% 30.05 in 9.0 mi WSW 11.5 mph 18.4 mph N/A   Overcast
7:20 AM 28.4 °F 19.1 °F 23.0 °F 80% 30.05 in 6.0 mi WSW 10.4 mph - 0.00 in Snow Light Snow
7:53 AM 28.9 °F 21.1 °F 23.0 °F 78% 30.09 in 6.0 mi WSW 8.1 mph - 0.00 in Snow Light Snow
8:06 AM 28.4 °F 21.2 °F 24.8 °F 86% 30.07 in 5.0 mi WSW 6.9 mph - 0.00 in Snow Light Snow
8:14 AM 28.4 °F 19.1 °F 24.8 °F 86% 30.08 in 2.5 mi WSW 10.4 mph - 0.00 in Snow Light Snow
8:24 AM 28.4 °F 20.4 °F 24.8 °F 86% 30.08 in 4.0 mi WSW 8.1 mph - 0.00 in Snow Light Snow
8:31 AM 28.4 °F 19.7 °F 24.8 °F 86% 30.09 in 2.5 mi WSW 9.2 mph - 0.00 in Snow Light Snow
8:46 AM 28.4 °F 20.4 °F 24.8 °F 86% 30.10 in 3.0 mi WSW 8.1 mph - 0.00 in Snow Light Snow
8:51 AM 28.4 °F 19.1 °F 24.8 °F 86% 30.10 in 1.8 mi WSW 10.4 mph - 0.00 in Snow Light Snow
8:53 AM 28.9 °F 20.4 °F 24.1 °F 82% 30.13 in 1.5 mi WSW 9.2 mph - 0.00 in Snow Light Snow
8:58 AM 28.4 °F 20.4 °F 24.8 °F 86% 30.10 in 2.0 mi WSW 8.1 mph - 0.00 in Snow Light Snow
9:01 AM 28.4 °F 19.7 °F 24.8 °F 86% 30.10 in 4.0 mi WSW 9.2 mph - 0.00 in Snow Light Snow
9:09 AM 28.4 °F 21.2 °F 24.8 °F 86% 30.10 in 6.0 mi WSW 6.9 mph - 0.00 in   Haze
9:20 AM 28.4 °F 19.7 °F 24.8 °F 86% 30.11 in 6.0 mi West 9.2 mph 16.1 mph 0.00 in   Haze
9:44 AM 30.2 °F 21.3 °F 24.8 °F 80% 30.12 in 2.0 mi West 10.4 mph - 0.00 in Snow Light Snow
9:53 AM 28.9 °F 19.8 °F 24.1 °F 82% 30.15 in 1.2 mi West 10.4 mph - 0.00 in Snow Light Snow
10:28 AM 30.2 °F 23.4 °F 24.8 °F 80% 30.15 in 3.0 mi West 6.9 mph 18.4 mph 0.00 in Snow Light Snow
10:38 AM 30.2 °F 19.8 °F 21.2 °F 69% 30.14 in 9.0 mi West 13.8 mph 17.3 mph 0.00 in   Mostly Cloudy
10:53 AM 30.0 °F 19.1 °F 19.0 °F 64% 30.17 in 10.0 mi West 15.0 mph 21.9 mph 0.00 in   Partly Cloudy
11:22 AM 30.2 °F 20.8 °F 19.4 °F 64% 30.16 in 10.0 mi WNW 11.5 mph 19.6 mph N/A   Mostly Cloudy
11:49 AM 28.4 °F 16.6 °F 15.8 °F 59% 30.17 in 10.0 mi West 16.1 mph 24.2 mph N/A   Mostly Cloudy
11:53 AM 28.9 °F 17.3 °F 15.1 °F 56% 30.20 in 10.0 mi West 16.1 mph 24.2 mph N/A   Mostly Cloudy
12:53 PM 27.0 °F 15.6 °F 12.9 °F 56% 30.22 in 10.0 mi WNW 13.8 mph 24.2 mph N/A   Mostly Cloudy
1:53 PM 27.0 °F 15.6 °F 12.9 °F 56% 30.23 in 10.0 mi West 13.8 mph 21.9 mph N/A   Mostly Cloudy
2:53 PM 28.0 °F 17.5 °F 14.0 °F 56% 30.24 in 10.0 mi West 12.7 mph 19.6 mph N/A   Overcast
3:53 PM 28.0 °F 16.1 °F 15.1 °F 58% 30.26 in 10.0 mi West 16.1 mph 21.9 mph N/A   Overcast
4:53 PM 27.0 °F 19.5 °F 15.1 °F 61% 30.28 in 10.0 mi West 6.9 mph - N/A   Partly Cloudy
5:53 PM 25.0 °F 16.3 °F 16.0 °F 69% 30.29 in 10.0 mi SW 8.1 mph - N/A   Clear
6:53 PM 27.0 °F 16.7 °F 17.1 °F 66% 30.30 in 10.0 mi SW 11.5 mph - N/A   Overcast
7:53 PM 27.0 °F 16.1 °F 17.1 °F 66% 30.30 in 10.0 mi SW 12.7 mph - N/A   Overcast
8:53 PM 27.0 °F 18.0 °F 17.1 °F 66% 30.30 in 10.0 mi SW 9.2 mph - N/A   Overcast
9:53 PM 26.1 °F 17.6 °F 18.0 °F 71% 30.30 in 6.0 mi WSW 8.1 mph - 0.00 in Snow Light Snow
10:53 PM 28.0 °F 21.7 °F 19.0 °F 69% 30.28 in 10.0 mi SSW 5.8 mph - 0.00 in   Overcast
11:53 PM 28.0 °F 22.8 °F 19.0 °F 69% 30.27 in 7.0 mi SSW 4.6 mph - 0.00 in Snow Light Snow